Location: Unspecified
(0.0000°N, 0.0000°E)
Time: 23:34:10
(UTC+01:00)

AO-40 - Visible Passes

Search period start: 09 February 2016 00:00
Search period end: 19 February 2016 00:00
Orbit: 1007 x 58813 km, 9.1° (Epoch: 08 February)

Date Brightness Start Highest point End Pass type
(mag) Time Alt. Az. Time Alt. Az. Time Alt. Az.
09 Feb ? 16:47:19 10° E 23:28:38 74° E 01:01:33 10° E visible
10 Feb ? 21:38:50 10° W 22:46:58 21° W 00:50:21 10° W visible
11 Feb ? 15:54:26 10° W 19:59:29 80° N 02:42:14 10° W visible
12 Feb ? 15:03:22 10° E 21:41:39 83° N 05:45:47 10° ESE visible
13 Feb ? 16:38:36 10° E 22:59:46 70° E 00:33:06 10° E visible
14 Feb ? 21:04:53 10° W 22:19:33 25° W 00:47:27 10° W visible
15 Feb ? 15:26:33 10° W 19:54:21 80° N 02:33:21 10° W visible
16 Feb ? 14:56:51 10° E 21:32:56 83° N 05:18:08 10° ESE visible
17 Feb ? 16:29:58 10° E 22:31:03 66° E 00:04:33 10° E visible
